Regional Weather Roundup
Issued by NWS Charleston, SC

Current Version | Previous Version | Graphics & Text | Print | Product List | Glossary On
Versions: 1 2 3 4 5 6 7 8 9 10 11 12 13 14 15 16 17 18 19 20 21 22 23 24 25 26 27 28 29 30 31 32 33 34 35 36 37 38 39 40 41 42 43 44 45 46 47 48 49 50
000 ASUS42 KCHS 271013 RWRCHS REGIONAL WEATHER ROUNDUP NATIONAL WEATHER SERVICE CHARLESTON SC 600 AM EDT FRI MAY 27 2016 NOTE: "FAIR" INDICATES FEW OR NO CLOUDS BELOW 12,000 FEET WITH NO SIGNIFICANT WEATHER AND/OR OBSTRUCTIONS TO VISIBILITY. NOT ALL STATIONS ARE QUALITY CONTROLLED. USE DATA WITH CAUTION... ESPECIALLY DEWPOINT OBSERVATIONS. SCZ027-030-031-034>040-042>050-271100- ...SOUTHEAST SOUTH CAROLINA... CITY SKY/WX TMP DP RH WIND PRES REMARKS N CHARLESTON PTCLDY 65 62 90 CALM 30.12S WATERFRONT PRK N/A 71 66 84 VRB3 30.10R MOUNT PLEASANT FAIR 63 61 94 CALM 30.13S FOG JOHNS ISLAND FAIR 64 63 94 CALM 30.13S PINOPOLIS N/A 70 66 88 MISG 30.03F MONCKS CORNER FAIR 57 55 94 CALM 30.13R SUMMERVILLE FAIR 61 61 100 CALM 30.13S BEAUFORT MCAS CLEAR 66 63 90 CALM 30.12R BEAUFORT ARPT FAIR 66 63 88 CALM 30.11R HILTON HEAD IS NOT AVBL WALTERBORO SUNNY 63 63 100 CALM 30.13R ALLENDALE FAIR 63 61 94 CALM 30.11S ...SOUTHERN MIDLANDS AND PEE DEE... CITY SKY/WX TMP DP RH WIND PRES REMARKS GEORGETOWN FAIR 59 59 100 CALM 30.14S KINGSTREE CLOUDY 63 59 88 CALM 30.13R ORANGEBURG PTCLDY 63 60 90 CALM 30.12S BARNWELL FAIR 64 64 100 CALM 30.12F AIKEN FAIR 63 59 88 CALM 30.15S MANNING FAIR 61 59 94 CALM 30.13S COLUMBIA CLEAR 67 61 81 CALM 30.11S SUMTER CLEAR 63 60 89 E2 30.10S FLORENCE CLEAR 64 61 90 CALM 30.14R MYRTLE BEACH NOT AVBL N MYRTLE BEACH CLEAR 63 62 97 NE6 30.13S $$ GAZ063-065-086>088-099>101-113>116-118-119-134>141-150-271100- ...SOUTHEAST GEORGIA... CITY SKY/WX TMP DP RH WIND PRES REMARKS SAVANNAH ARPT PTCLDY 63 61 93 CALM 30.11R HUNTER AAF CLEAR 64 63 97 E2 30.08R FORT STEWART CLEAR 61 58 92 CALM 30.08S STATESBORO CLEAR 63 63 100 CALM 30.10S SYLVANIA MOSUNNY 65 63 93 CALM 30.11F CLAXTON FAIR 60 60 100 CALM 30.10S ...CSRA...CENTRAL AND FAR SOUTHEAST GEORGIA... CITY SKY/WX TMP DP RH WIND PRES REMARKS THOMSON CLOUDY 71 64 77 CALM 30.15S AUGUSTA-BUSH CLEAR 63 60 90 CALM 30.11R AUGUSTA-DANIEL CLEAR 68 59 73 CALM 30.13R SWAINSBORO FAIR 63 59 88 CALM 30.12R VIDALIA CLEAR 64 61 88 CALM 30.10S EASTMAN FAIR 62 62 100 CALM 30.12S HAZLEHURST FAIR 66 63 90 CALM 30.08S ALMA CLEAR 60 60 100 CALM 30.08S WAYCROSS CLEAR 60 60 100 CALM 30.08S JESUP FAIR 55 55 100 CALM 30.10R BAXLEY FAIR 63 61 94 CALM 30.09R BRUNSWICK CLEAR 59 59 100 CALM 30.09S SAINT SIMONS PTCLDY 68 61 78 E3 30.07S $$ SCZ027-028-034-036>038-045-046-048>050-GAZ119-141-271100- ...LAKE AND SUPPLEMENTAL COASTAL OBSERVATIONS... STATION/POSITION TIME TEMP WIND PRES WAVE SWELL AIR SEA DIR/SP/G HT/PER HT/PER/DIR (UTC) (F) (DEG/KT/KT) (MB) (FT/S) (FT/S/D) WINYAH BAY NOT AVBL LAKE MURRAY 0900 71 170/ 6/ 8 1019.0F ACE BASIN NERRS NOT AVBL FORT PULASKI 0900 72 77 100/ 2/ 3 1019.5F SAPELO ISLAND 0900 64 CALM 1019.0S $$ ANZ835-935-AMZ111-154-330-350-352-354-370-450-454-472-271100- ...C-MAN AND BUOY OBSERVATIONS... STATION/POSITION TIME TEMP WIND PRES WAVE SWELL AIR SEA DIR/SP/G HT/PER HT/PER/DIR (UTC) (F) (DEG/KT/KT) (MB) (FT/S) (FT/S/D) BUOY 41004 0950 76 77 60/ 4/ 6 1019.4R 2/ 8 2/ 8 BUOY 41008 0950 76 76 60/ 4/ 6 1018.8R 2/ 6 2/130/ 6 FOLLY BEACH CMAN 0900 76 110/ 4/ 6 1019.8R CAPERS NEARSHORE 0908 76 76 150/ 4/ 8 1019.7R FRIPP NEARSHORE 0908 76 76 140/ 6/ 8 1019.0R STATION/POSITION TIME TEMP WIND PRES WAVE SWELL AIR SEA DIR/SP/G HT/PER HT/PER/DIR (UTC) (F) (DEG/KT/KT) (MB) (FT/S) (FT/S/D) 5E ST. MARYS GA 0901 77 N/A 3/ 5 FRYING PAN BUOY 0900 76 76 110/ 2/ 4 1020.0S BUOY 41025 0950 76 78 220/ 4/ 6 1021.7R 2/ 8 2/110/ 8 CAPE LOOKOUT NC 0900 72 160/ 2/ 2 1020.7F BUOY 41002 0950 76 77 60/ 14/ 16 1018.7R 3/ 5 2/100/ 7 BUOY 41010 0920 76 79 50/ 14/ 16 1016.5R ST AUGUSTINE FL 1000 76 78 100/ 8/ 9 1018.4R $$

USA.gov is the U.S. government's official web portal to all federal, state and local government web resources and services.